SIA72 WSSS-RPLL

Flight info

Callsign SIA72
Flight time N/A
Altitude 39000
Route TOMAN3A TOMAN L625 LUSMO N884 LUBAN LUBAN1A
Aircraft B742/H-SDFHIRWXY/L

Departure

Time N/A
Airport Singapore Changi Airport (WSSS)

Arrival

Time 2026-05-06 23:35
Airport Ninoy Aquino International Airport (RPLL)
Time Latitude Longitude Altitude Speed Heading
2026-05-06 22:51 11.49250 116.97356 38857 ft 497 kts 51°
2026-05-06 22:51 11.53489 117.02925 38857 ft 496 kts 51°
2026-05-06 22:52 11.57719 117.08486 38858 ft 496 kts 51°
2026-05-06 22:52 11.61957 117.14061 38862 ft 498 kts 51°
2026-05-06 22:53 11.66195 117.19638 38866 ft 496 kts 51°
2026-05-06 22:53 11.70424 117.25207 38863 ft 497 kts 51°
2026-05-06 22:54 11.74667 117.30797 38866 ft 498 kts 51°
2026-05-06 22:54 11.78908 117.36389 38865 ft 497 kts 51°
2026-05-06 22:55 11.83154 117.41989 38866 ft 499 kts 51°
2026-05-06 22:55 11.87408 117.47603 38864 ft 499 kts 51°
2026-05-06 22:56 11.91652 117.53207 38866 ft 499 kts 51°
2026-05-06 22:56 11.95900 117.58820 38863 ft 500 kts 51°
2026-05-06 22:57 12.00165 117.64459 38865 ft 500 kts 51°
2026-05-06 22:57 12.04425 117.70094 38863 ft 501 kts 51°
2026-05-06 22:58 12.08690 117.75739 38866 ft 502 kts 51°
2026-05-06 22:58 12.12958 117.81392 38866 ft 502 kts 51°
2026-05-06 22:59 12.17216 117.87035 38865 ft 500 kts 51°
2026-05-06 22:59 12.21474 117.92680 38866 ft 502 kts 51°
2026-05-06 23:00 12.25756 117.98361 38865 ft 503 kts 51°
2026-05-06 23:00 12.30026 118.04030 38868 ft 502 kts 51°
2026-05-06 23:01 12.34313 118.09724 38870 ft 505 kts 51°
2026-05-06 23:01 12.38599 118.15421 38872 ft 504 kts 51°
2026-05-06 23:02 12.42870 118.21101 38872 ft 503 kts 51°
2026-05-06 23:02 12.47152 118.26798 38873 ft 506 kts 51°
2026-05-06 23:03 12.51448 118.32519 38872 ft 505 kts 51°
2026-05-06 23:03 12.55720 118.38212 38869 ft 502 kts 51°
2026-05-06 23:04 12.59997 118.43913 38867 ft 505 kts 51°
2026-05-06 23:04 12.64293 118.49643 38865 ft 505 kts 51°
2026-05-06 23:05 12.68580 118.55367 38867 ft 505 kts 51°
2026-05-06 23:05 12.72862 118.61085 38866 ft 505 kts 51°
2026-05-06 23:06 12.77136 118.66797 38865 ft 504 kts 52°
2026-05-06 23:06 12.81403 118.72505 38867 ft 506 kts 52°
2026-05-06 23:07 12.85681 118.78229 38867 ft 506 kts 52°
2026-05-06 23:07 12.89948 118.83942 38867 ft 504 kts 52°
2026-05-06 23:08 12.94223 118.89670 38867 ft 506 kts 52°
2026-05-06 23:08 12.98505 118.95411 38867 ft 507 kts 52°
2026-05-06 23:09 13.02799 119.01139 38865 ft 506 kts 51°
2026-05-06 23:09 13.07115 119.06843 38864 ft 506 kts 51°
2026-05-06 23:09 13.09280 119.09697 38512 ft 512 kts 51°
2026-05-06 23:10 13.11479 119.12596 37801 ft 519 kts 51°
2026-05-06 23:10 13.13683 119.15504 37052 ft 516 kts 51°
2026-05-06 23:10 13.15877 119.18400 36307 ft 512 kts 51°
2026-05-06 23:10 13.18046 119.21264 35567 ft 507 kts 51°
2026-05-06 23:11 13.20195 119.24103 34830 ft 503 kts 51°
2026-05-06 23:11 13.22326 119.26918 34096 ft 499 kts 51°
2026-05-06 23:11 13.24447 119.29721 33368 ft 499 kts 50°
2026-05-06 23:11 13.26580 119.32540 32642 ft 501 kts 50°
2026-05-06 23:12 13.28723 119.35372 31977 ft 504 kts 51°
2026-05-06 23:12 13.30872 119.38215 31315 ft 504 kts 50°
2026-05-06 23:12 13.33012 119.41047 30658 ft 503 kts 50°
2026-05-06 23:12 13.35154 119.43881 29995 ft 502 kts 50°
2026-05-06 23:13 13.37296 119.46717 29347 ft 505 kts 50°
2026-05-06 23:13 13.39449 119.49566 28682 ft 506 kts 50°
2026-05-06 23:13 13.41736 119.52300 28024 ft 504 kts 45°
2026-05-06 23:13 13.44127 119.54928 27368 ft 504 kts 46°
2026-05-06 23:14 13.46483 119.57615 26707 ft 507 kts 47°
2026-05-06 23:14 13.48795 119.60356 26048 ft 510 kts 49°
2026-05-06 23:14 13.51079 119.63140 25394 ft 511 kts 50°
2026-05-06 23:14 13.53314 119.65937 24743 ft 502 kts 51°
2026-05-06 23:15 13.55471 119.68719 24091 ft 495 kts 52°
2026-05-06 23:15 13.57572 119.71488 23443 ft 490 kts 52°
2026-05-06 23:15 13.59642 119.74256 22797 ft 487 kts 53°
2026-05-06 23:15 13.61678 119.77008 22161 ft 482 kts 53°
2026-05-06 23:16 13.63682 119.79738 21531 ft 477 kts 53°
2026-05-06 23:16 13.65662 119.82454 20904 ft 471 kts 54°
2026-05-06 23:16 13.67605 119.85131 20282 ft 467 kts 54°
2026-05-06 23:16 13.69534 119.87798 19659 ft 462 kts 54°
2026-05-06 23:17 13.71435 119.90434 19037 ft 458 kts 54°
2026-05-06 23:17 13.73324 119.93057 18413 ft 453 kts 54°
2026-05-06 23:17 13.75191 119.95655 17790 ft 449 kts 54°
2026-05-06 23:17 13.77035 119.98225 17165 ft 445 kts 54°
2026-05-06 23:18 13.78867 120.00780 16556 ft 440 kts 54°
2026-05-06 23:18 13.80675 120.03304 15936 ft 437 kts 54°
2026-05-06 23:18 13.82466 120.05807 15329 ft 432 kts 54°
2026-05-06 23:18 13.84244 120.08293 14716 ft 429 kts 54°
2026-05-06 23:19 13.86007 120.10759 14101 ft 425 kts 54°
2026-05-06 23:19 13.87753 120.13205 13477 ft 422 kts 54°
2026-05-06 23:19 13.89472 120.15612 12872 ft 414 kts 54°
2026-05-06 23:19 13.91175 120.17997 12478 ft 412 kts 54°
2026-05-06 23:20 13.92871 120.20374 12194 ft 412 kts 54°
2026-05-06 23:20 13.94567 120.22752 11924 ft 412 kts 54°
2026-05-06 23:20 13.96251 120.25115 11652 ft 408 kts 54°
2026-05-06 23:20 13.97928 120.27468 11374 ft 408 kts 54°
2026-05-06 23:21 13.99601 120.29817 11101 ft 405 kts 54°
2026-05-06 23:21 14.01269 120.32160 10826 ft 405 kts 54°
2026-05-06 23:21 14.02927 120.34490 10548 ft 402 kts 54°
2026-05-06 23:21 14.04577 120.36810 10265 ft 401 kts 54°
2026-05-06 23:22 14.06225 120.39128 9994 ft 399 kts 54°
2026-05-06 23:22 14.07865 120.41436 9715 ft 397 kts 54°
2026-05-06 23:22 14.09453 120.43670 9528 ft 370 kts 54°
2026-05-06 23:22 14.10906 120.45711 9367 ft 337 kts 55°
2026-05-06 23:23 14.12231 120.47575 9214 ft 310 kts 55°
2026-05-06 23:23 14.13456 120.49300 9054 ft 288 kts 55°
2026-05-06 23:23 14.14634 120.50962 8816 ft 288 kts 55°
2026-05-06 23:23 14.15810 120.52619 8460 ft 285 kts 55°
2026-05-06 23:24 14.16949 120.54225 8101 ft 272 kts 55°
2026-05-06 23:24 14.18046 120.55772 7755 ft 265 kts 55°
2026-05-06 23:24 14.19132 120.57303 7414 ft 264 kts 55°
2026-05-06 23:24 14.20210 120.58826 7058 ft 262 kts 55°
2026-05-06 23:25 14.21292 120.60332 6702 ft 260 kts 51°
2026-05-06 23:25 14.22663 120.61553 6346 ft 262 kts 37°
2026-05-06 23:25 14.24173 120.62605 5998 ft 260 kts 35°
2026-05-06 23:25 14.25684 120.63624 5648 ft 259 kts 35°
2026-05-06 23:26 14.27185 120.64634 5301 ft 256 kts 35°
2026-05-06 23:26 14.28673 120.65634 5083 ft 254 kts 35°
2026-05-06 23:26 14.30156 120.66633 5019 ft 254 kts 35°
2026-05-06 23:26 14.31643 120.67635 5004 ft 255 kts 35°
2026-05-06 23:27 14.33121 120.68647 4993 ft 253 kts 41°
2026-05-06 23:27 14.34130 120.70071 4987 ft 240 kts 73°
2026-05-06 23:27 14.34382 120.71709 5003 ft 231 kts 75°
2026-05-06 23:27 14.34981 120.73263 4999 ft 232 kts 66°
2026-05-06 23:28 14.35690 120.74744 4986 ft 230 kts 63°
2026-05-06 23:28 14.36351 120.75982 4851 ft 229 kts 61°
2026-05-06 23:28 14.36917 120.76986 4666 ft 224 kts 60°
2026-05-06 23:28 14.37693 120.78330 4428 ft 210 kts 60°
2026-05-06 23:29 14.38413 120.79581 4242 ft 195 kts 60°
2026-05-06 23:29 14.39077 120.80755 4095 ft 187 kts 61°
2026-05-06 23:29 14.39726 120.81919 3815 ft 187 kts 61°
2026-05-06 23:29 14.40369 120.83078 3554 ft 185 kts 61°
2026-05-06 23:30 14.41004 120.84224 3313 ft 182 kts 61°
2026-05-06 23:30 14.41632 120.85354 3088 ft 181 kts 61°
2026-05-06 23:30 14.42252 120.86469 2855 ft 177 kts 61°
2026-05-06 23:30 14.42853 120.87549 2690 ft 168 kts 61°
2026-05-06 23:31 14.43422 120.88573 2455 ft 162 kts 61°
2026-05-06 23:31 14.43972 120.89567 2221 ft 158 kts 61°
2026-05-06 23:31 14.44517 120.90547 2025 ft 154 kts 61°
2026-05-06 23:31 14.45023 120.91454 1889 ft 139 kts 61°
2026-05-06 23:32 14.45513 120.92334 1688 ft 140 kts 62°
2026-05-06 23:32 14.45995 120.93201 1460 ft 139 kts 61°
2026-05-06 23:32 14.46478 120.94076 1310 ft 143 kts 62°
2026-05-06 23:32 14.46971 120.94974 1182 ft 144 kts 62°
2026-05-06 23:33 14.47472 120.95874 957 ft 142 kts 61°
2026-05-06 23:33 14.47964 120.96749 749 ft 142 kts 61°
2026-05-06 23:33 14.48455 120.97631 612 ft 142 kts 61°
2026-05-06 23:33 14.48949 120.98517 433 ft 143 kts 62°
2026-05-06 23:34 14.49450 120.99413 232 ft 145 kts 61°
2026-05-06 23:34 14.49953 121.00310 45 ft 143 kts 62°
2026-05-06 23:34 14.50390 121.01105 40 ft 100 kts 60°
2026-05-06 23:34 14.50638 121.01544 48 ft 50 kts 60°
2026-05-06 23:35 14.50769 121.01718 51 ft 23 kts 40°
2026-05-06 23:35 14.50870 121.01786 53 ft 12 kts 353°
2026-05-06 23:35 14.50895 121.01723 53 ft 10 kts 244°
2026-05-06 23:35 14.50856 121.01654 52 ft 11 kts 239°
2026-05-06 23:36 14.50819 121.01590 53 ft 9 kts 240°
2026-05-06 23:36 14.50771 121.01503 53 ft 19 kts 240°
2026-05-06 23:36 14.50698 121.01371 49 ft 19 kts 240°
2026-05-06 23:36 14.50629 121.01248 45 ft 20 kts 240°
2026-05-06 23:37 14.50573 121.01146 43 ft 10 kts 240°
2026-05-06 23:37 14.50531 121.01074 41 ft 12 kts 238°
2026-05-06 23:37 14.50476 121.00971 38 ft 20 kts 241°
2026-05-06 23:37 14.50436 121.00866 38 ft 12 kts 283°
2026-05-06 23:38 14.50489 121.00809 39 ft 9 kts 308°
2026-05-06 23:38 14.50501 121.00752 40 ft 6 kts 276°
2026-05-06 23:38 14.50506 121.00719 41 ft 0 kts 279°